Regional Weather Roundup
Issued by NWS San Angelo, TX

Home | Current Version | Previous Version | Text Only | Print | Product List | Glossary On
Versions: 1 2 3 4 5 6 7 8 9 10 11 12 13 14 15 16 17 18 19 20 21 22 23 24 25 26 27 28 29 30 31 32 33 34 35 36 37 38 39 40 41 42 43 44 45 46 47 48 49 50
000
ASUS44 KSJT 221010
RWRSJT
WEST CENTRAL TEXAS REGIONAL WEATHER ROUNDUP
NATIONAL WEATHER SERVICE SAN ANGELO TX
500 AM CDT FRI MAY 22 2015

NOTE: "FAIR" INDICATES FEW OR NO CLOUDS BELOW 12,000 FEET WITH NO
SIGNIFICANT WEATHER AND/OR OBSTRUCTIONS TO VISIBILITY.

TXZ049-054-064>066-071>073-076>078-098-099-113-114-127-128-139-140-
154-155-168>170-221100
...LOCATIONS ACROSS WEST CENTRAL TEXAS...

CITY           SKY/WX    TMP DP  RH WIND       PRES   REMARKS
SAN ANGELO     CLOUDY    61  60  97 E8        30.08S
ABILENE        CLOUDY    58  57  97 SE9       30.10S
DYESS AFB      CLOUDY    59  55  88 S6        30.09S
JUNCTION       CLOUDY    61  61 100 E8        30.08S FOG
SWEETWATER     CLOUDY    58  58 100 SE6       30.12F
BROWNWOOD      CLOUDY    59  59 100 SE6       30.10F FOG
COLEMAN        CLOUDY    59  59 100 SE8       30.11R FOG
SONORA         CLOUDY    63  63 100 SE7       30.10F
OZONA          RAIN      63  61  94 SE6       30.10R
BRADY          NOT AVBL
$$

TEXAS PANHANDLE/OKLAHOMA PANHANDLE

CITY           SKY/WX    TMP DP  RH WIND       PRES   REMARKS
AMARILLO       LGT RAIN  50  49  96 SE9       30.12R
BORGER         MOCLDY    51  49  92 SE5       30.12R
CANADIAN       NOT AVBL
DALHART        CLOUDY    48  46  93 S17       30.13R
DUMAS          CLOUDY    48  47  97 SE8       30.12F
GUYMON         NOT AVBL
HEREFORD       CLOUDY    51  51  98 MISG      30.14R
PAMPA          CLOUDY    49  48  97 E12       30.11R
PERRYTON       CLOUDY    50  49  95 E12G18    30.10F
$$

SOUTHERN PANHANDLE/SOUTH PLAINS/ROLLING PLAINS

CITY           SKY/WX    TMP DP  RH WIND       PRES   REMARKS
LUBBOCK        CLOUDY    52  51  97 NE8       30.11S
SNYDER         CLOUDY    56  56  99 SE9       30.10F FOG
CHILDRESS      HVY RAIN  55  54  96 NE5       30.14F FOG
SEMINOLE       CLOUDY    54  54  99 CALM      30.11R FOG
$$

PERMIAN BASIN

CITY           SKY/WX    TMP DP  RH WIND       PRES   REMARKS
MIDLAND        CLOUDY    58  57  97 E5        30.07F FOG
ODESSA         CLOUDY    58  56  93 E3        30.08S FOG
WINK           CLOUDY    57  54  89 NE5       30.05F FOG
$$

FAR WEST/SOUTHWEST MOUNTAINS/TRANS PECOS

CITY           SKY/WX    TMP DP  RH WIND       PRES   REMARKS
ALPINE         CLOUDY    56  56  97 E6        30.15S
DRYDEN           N/A     68  66  93 SE6       30.01S
EL PASO        MOCLDY    57  51  80 SE3       30.04S
FORT STOCKTON  CLOUDY    58  58 100 NW5       30.06R FOG
GUADALUPE PASS CLOUDY    48  48 100 NE12      30.13S
MARFA          CLOUDY   N/A N/A N/A E5        30.11S
PECOS          DRIZZLE   56  55  96 NW6       30.07S
$$

DALLAS/FORT WORTH METROPLEX

CITY           SKY/WX    TMP DP  RH WIND       PRES   REMARKS
DFW AIRPORT    CLOUDY    60  58  92 SE10      30.13S
FTW MEACHAM    CLOUDY    62  59  90 E12       30.12S
DAL-EXECUTIVE  CLOUDY    60  58  92 E9        30.14R
GRAND PRAIRIE  CLOUDY    60  60 100 E8        30.15R
ADDISON        CLOUDY    63  59  88 E12G20    30.16R
MESQUITE       CLOUDY    60  58  92 E9        30.15S
LANCASTER      CLOUDY    60  57  87 E6        30.15S
$$

NORTH CENTRAL TEXAS

CITY           SKY/WX    TMP DP  RH WIND       PRES   REMARKS
SHRMAN/DENISON CLOUDY    61  58  89 SE10      30.17F
GAINESVILLE    CLOUDY    60  56  88 E8        30.17R
BRIDGEPORT     CLOUDY    61  60  97 SE7       30.14S
DENTON         CLOUDY    62  58  86 SE10      30.14S
WAXAHACHIE     CLOUDY    60  60 100 E5        30.15R
GRANBURY         N/A     62  60  93 E7        30.13S
$$

WESTERN NORTH TEXAS

CITY           SKY/WX    TMP DP  RH WIND       PRES   REMARKS
WICHITA FALLS  CLOUDY    59  54  83 E7        30.13F
VERNON         CLOUDY    60  54  80 E8        30.13S
BRECKENRIDGE   CLOUDY    61  59  94 SE3       30.11S
COMANCHE       CLOUDY    59  59 100 SE7       30.12F FOG
$$

CENTRAL AND SOUTH CENTRAL TEXAS

CITY           SKY/WX    TMP DP  RH WIND       PRES   REMARKS
AUSTIN/BERGSTM DRZL/FOG  63  63 100 NE6       30.09S VSB 1
WACO           CLOUDY    61  60  97 E8        30.12R
HILLSBORO      CLOUDY    60  57  91 E9        30.13S
TEMPLE         CLOUDY    63  57  82 E7        30.10S
KILLEEN-GRAY   CLOUDY    61  61 100 E2        30.10S FOG
FORT HOOD      CLOUDY    61  61  98 E3        30.10R FOG
GEORGETOWN     CLOUDY    63  63 100 NE6       30.10F
LAGO VISTA     DRZL/FOG  62  61  96 NE7       30.11S VSB 1/4
SAN MARCOS     CLOUDY    63  61  94 NE5       30.09F
NEW BRAUNFELS  CLOUDY    64  63  96 NE8       30.06F
RANDOLPH AFB   CLOUDY    64  63  98 NE8       30.06F
SAN ANTONIO    CLOUDY    65  62  90 E8        30.06F
STINSON        CLOUDY    65  63  93 NE13      30.04F
PLEASANTON     NOT AVBL
LA GRANGE      CLOUDY    69  68  97 CALM      30.06F
GIDDINGS       CLOUDY    66  65  98 E3        30.12F FOG
$$

EAST TEXAS

CITY           SKY/WX    TMP DP  RH WIND       PRES   REMARKS
PARIS          PTCLDY    55  52  88 SE9       30.20R
CLARKSVILLE    NOT AVBL
TYLER          CLOUDY    60  57  89 E9        30.16S
LONGVIEW       PTCLDY    57  54  89 N3        30.19R
PALESTINE      CLOUDY    61  59  95 E7        30.15R
NACOGDOCHES    CLOUDY    57  55  94 E8        30.15R
$$

TEXAS HILL COUNTRY AND EDWARDS PLATEAU

CITY           SKY/WX    TMP DP  RH WIND       PRES   REMARKS
LLANO          CLOUDY    61  61 100 E5        30.13F FOG
HORSESHOE BAY  CLOUDY    61  61  98 E3        30.10S FOG
KERRVILLE      CLOUDY    61  60  96 CALM      30.08F FOG
FREDERICKSBRG  RAIN      60  59  97 E5        30.09S
ROCKSPRINGS    FOG       64  64 100 SE7       30.09S VSB 1/4
HONDO          CLOUDY    65  64  97 E9        30.06F
UVALDE         CLOUDY    65  64  96 E10       30.04S FOG
DEL RIO        LGT RAIN  68  65  90 SE8       30.01R FOG
$$

SOUTHEAST TEXAS

CITY           SKY/WX    TMP DP  RH WIND       PRES   REMARKS
COLLEGE STN    CLOUDY    65  64  97 NE9       30.10R
CALDWELL       CLOUDY    64  64 100 MISG      30.13R FOG
CROCKETT       NOT AVBL
BRENHAM        CLOUDY    69  68  98 NE5       30.10S
HUNTSVILLE     CLOUDY    63  62  97 E3        30.12R FOG
CONROE         CLOUDY    66  63  90 E6        30.12R
HOUSTON BUSH   CLOUDY    68  65  90 E10       30.10R
HOUSTON HOBBY  CLOUDY    71  67  87 NE10      30.08F
PERLAND        LGT RAIN  71  68  90 NE9       30.09F
WHARTON        CLOUDY    69  67  93 NE6       30.08R
$$

THE UPPER TEXAS COAST

CITY           SKY/WX    TMP DP  RH WIND       PRES   REMARKS
ORANGE         CLOUDY    63  60  90 N5        30.14S
PORT ARTHUR    CLOUDY    64  61  90 N10       30.12R
GALVESTON      CLOUDY    72  69  90 NE16      30.08F
ANGLETON       MOCLDY    68  68 100 NE10      30.06S
BAY CITY       PTSUNNY   70  70 100 NE9       30.06S
$$

TEXAS COASTAL BEND, RIO GRANDE PLAINS DEEP SOUTH TEXAS

CITY           SKY/WX    TMP DP  RH WIND       PRES   REMARKS
VICTORIA       CLOUDY    71  70  96 N6        30.06R FOG
BEEVILLE       CLOUDY    70  70 100 NE5       30.03S
ROCKPORT       CLOUDY    76  71  85 SE6       30.01S
PORT ARANSAS   CLOUDY    78  74  87 S8        30.01F
PORT LAVACA    CLOUDY    72  71  97 NE13      30.04S
CORPUS CHRISTI CLOUDY    75  73  93 SE5       30.01F
KINGSVILLE NAS CLOUDY    75  75 100 NE6       30.01S FOG
COTULLA        CLOUDY    69  66  90 E14       30.00F FOG
LAREDO         CLOUDY    73  70  91 E12       29.98F
BROWNSVILLE    CLOUDY    74  73  97 W3        30.02R FOG
PORT ISABEL    PTCLDY    77  75  93 CALM      30.00R
HEBBRONVILLE     N/A     73  72  96 E6        30.01F FOG
MCALLEN        MOCLDY    78  74  87 CALM      30.04R
WESLACO        CLOUDY    76  73  93 CALM      30.03R FOG
FALFURRIAS     CLOUDY    74  73  95 CALM      30.02S
EDINBURG       CLOUDY    74  72  91 CALM      30.03S FOG
$$


USA.gov is the U.S. government's official web portal to all federal, state and local government web resources and services.